[[{"header":{"parameterUnit":"m.s-1","parameterCategory":1,"la1":30.2991,"la2":30.254,"lo1":-89.0895,"lo2":-89.0444,"dy":0.0017,"dx":0.0017,"nx":28,"ny":28,"refTime":"2024-03-19T03:00:00:Z","depth":0,"parameterNumber":2,"parameterNumberName":"U-component_of_WINDS"},"data":[0,0,0,0,0,0,0,0,0,0,0,0,0,0,0,0,0,0,0,0,0,0,0,0,0,0,0,0,0,0,0,0,0,0,0,0,0,0,0,0,0,0,0,0,0,0,0,0,0,0,0,0,0,0,0,0,0,0,1.8751,1.8752,0,1.8829,1.883,1.8831,1.8844,1.8844,1.8843,1.8842,1.8923,1.8926,1.8929,0,0,0,0,0,0,0,0,0,0,0,0,0,1.8612,1.8614,1.8751,1.8752,1.8753,1.8829,1.883,1.8831,1.8844,1.8844,1.8843,1.8842,1.8922,1.8926,1.8929,0,0,0,0,0,0,0,0,0,0,0,0,0,1.8679,1.8615,1.8751,1.8769,1.8771,1.8829,1.883,1.8831,1.8845,1.8844,1.8843,1.8842,1.8921,1.8925,1.8929,1.8975,0,0,1.8942,1.8944,0,0,0,0,0,0,0,0,1.8675,1.8684,1.8765,1.8767,1.877,1.8826,1.8811,1.888,1.8845,1.8817,1.8842,1.8841,1.8892,1.8898,1.8915,1.8979,1.8982,1.8943,1.8945,1.8947,1.8948,0,0,0,0,0,0,0,1.8671,1.8681,1.8782,1.8766,1.8769,1.8772,1.8781,1.8824,1.8859,1.8819,1.882,1.8829,1.8893,1.8911,1.8917,1.8984,1.8942,1.8946,1.8949,1.895,1.9086,1.9087,0,0,0,0,0,0,1.8663,1.8677,1.8779,1.8784,1.8719,1.8776,1.8785,1.8809,1.8858,1.8865,1.883,1.883,1.8905,1.8912,1.892,1.8975,1.8947,1.8951,1.8953,1.9085,1.9086,1.9087,0,0,0,0,0,0,1.866,1.8672,1.8776,1.8731,1.8744,1.8779,1.8806,1.8811,1.8829,1.8867,1.8873,1.8842,1.8904,1.8914,1.8961,1.8978,1.8953,1.8956,1.9083,1.9085,1.9087,1.9086,0,0,0,0,0,0,1.8656,1.8671,1.8689,1.8731,1.8747,1.8816,1.8807,1.8813,1.8836,1.8836,1.888,1.8886,1.8904,1.8954,1.8965,1.8983,1.896,1.9082,1.9084,1.9086,1.9084,1.9087,1.909,0,0,0,0,0,1.8651,1.8686,1.869,1.8702,1.877,1.8817,1.8825,1.8845,1.8838,1.8856,1.8879,1.8885,1.8974,1.8959,1.8971,1.8991,1.9081,1.9084,1.9086,1.9083,1.9087,1.9089,0,0,0,0,0,0,1.8645,1.8692,1.8696,1.8747,1.8777,1.8819,1.8842,1.8849,1.8883,1.8881,1.8905,1.8914,1.8959,1.898,1.8962,1.9036,1.9027,1.9032,1.9021,1.9024,1.9027,1.9021,1.8963,0,0,0,0,0,1.865,1.8684,1.8723,1.8763,1.8778,1.8808,1.8829,1.8841,1.8874,1.8887,1.8915,1.8946,1.8981,1.9004,1.9039,1.9088,1.9096,1.9107,1.9109,1.9111,1.9115,1.914,1.9145,1.9095,1.9095,1.9095,0,0,1.866,1.869,1.871,1.8763,1.8788,1.8822,1.8819,1.8855,1.888,1.8893,1.8938,1.8959,1.8996,1.9043,1.9065,1.9061,1.9131,1.9115,1.9116,1.9119,1.9143,1.9148,1.9152,1.9097,1.9097,1.9097,0,0,1.8695,1.8722,1.8757,1.8782,1.882,1.8839,1.8847,1.8887,1.8901,1.8947,1.8956,1.8986,1.9047,1.9072,1.9093,1.9135,1.9141,1.9146,1.9159,1.9183,1.9187,1.9191,1.9204,1.9209,1.915,1.915,1.915,0,1.8703,1.8754,1.8775,1.881,1.8832,1.8845,1.888,1.8903,1.8951,1.8966,1.8961,1.9036,1.9062,1.9114,1.9124,1.9141,1.915,1.9141,1.9185,1.9189,1.9192,1.9205,1.9211,1.915,1.915,1.915,1.915,0,1.8761,1.8796,1.882,1.8864,1.889,1.8925,1.895,1.8973,1.8983,1.9002,1.9047,1.9078,1.9118,1.9131,1.9142,1.9184,1.9181,1.918,1.9172,1.9197,1.9209,1.9215,1.9151,1.9151,1.915,1.915,0,0,1.8795,1.8849,1.8857,1.8876,1.8918,1.8946,1.8981,1.902,1.9038,1.907,1.91,1.915,1.9149,1.9172,1.9186,1.9207,1.9236,1.9204,1.9205,1.9207,1.9282,1.9281,1.9287,1.924,1.9241,1.9242,1.9279,0,1.8834,1.8897,1.8915,1.8968,1.9,1.9011,1.9041,1.907,1.9088,1.9118,1.9138,1.9173,1.917,1.9184,1.9205,1.9228,1.9251,1.9226,1.9266,1.9268,1.9256,1.9294,1.9293,1.9326,1.9284,1.9285,1.9285,0,1.8887,1.8919,1.8975,1.901,1.9025,1.9052,1.9087,1.9116,1.9148,1.916,1.9185,1.9196,1.9232,1.9222,1.9271,1.9253,1.9271,1.9284,1.9286,1.929,1.9277,1.9297,1.9338,1.9342,1.9293,1.9293,1.9292,0,1.8904,1.8961,1.9001,1.9018,1.9061,1.9079,1.9098,1.913,1.9151,1.9182,1.9196,1.9231,1.925,1.9277,1.9297,1.9288,1.9344,1.9335,1.9353,1.9353,1.9364,1.9363,1.9407,1.9378,1.9378,1.9378,1.9378,0,1.8945,1.8978,1.9009,1.9034,1.907,1.9091,1.9127,1.9146,1.9174,1.9201,1.9214,1.924,1.9265,1.9294,1.931,1.9347,1.9356,1.9366,1.9369,1.9364,1.9363,1.9375,1.9373,1.9379,1.9379,1.9378,1.9378,0,1.897,1.8992,1.9036,1.9073,1.9083,1.9109,1.914,1.9164,1.9182,1.9217,1.9226,1.9255,1.929,1.9312,1.9357,1.9367,1.9407,1.9411,1.9396,1.9398,1.9414,1.9411,1.9466,1.9474,1.9441,1.9441,1.9441,0,1.8994,1.9019,1.9058,1.9077,1.9096,1.9128,1.9149,1.917,1.9191,1.9229,1.9247,1.9283,1.9312,1.9366,1.9391,1.9424,1.9428,1.9445,1.9433,1.9426,1.9426,1.9424,1.9426,1.9447,1.9447,1.9447,1.9447,0,1.9033,1.9042,1.9072,1.9106,1.9131,1.9158,1.9186,1.9201,1.9226,1.925,1.9285,1.9307,1.9352,1.9386,1.9421,1.944,1.9448,1.9451,1.9456,1.9451,1.944,1.9444,1.94,1.9449,1.9449,1.9449,1.9449,1.9449,1.9057,1.9079,1.9109,1.9142,1.9165,1.919,1.9213,1.9234,1.9264,1.9301,1.9311,1.9347,1.9377,1.9425,1.9445,1.9473,1.9471,1.948,1.9482,1.9483,1.9482,1.9436,1.948,1.948,1.948,1.948,1.948,0,1.9095,1.9115,1.9145,1.9182,1.9207,1.9212,1.9242,1.9263,1.9294,1.9321,1.9349,1.9388,1.9421,1.9448,1.9482,1.9499,1.9503,1.9507,1.9505,1.9509,1.9483,1.9474,1.9503,1.9503,1.9503,1.9503,1.9503,1.9503,1.9118,1.9155,1.9168,1.9216,1.9236,1.9271,1.9287,1.931,1.9331,1.9374,1.9401,1.9418,1.9445,1.948,1.951,1.9517,1.9528,1.9531,1.9539,1.9514,1.9511,1.9509,1.95,1.9534,1.9534,1.9562,1.9562,1.9563]},{"header":{"parameterUnit":"m.s-1","parameterCategory":1,"la1":30.2991,"la2":30.254,"lo1":-89.0895,"lo2":-89.0444,"dy":0.0017,"dx":0.0017,"nx":28,"ny":28,"refTime":"2024-03-19T03:00:00:Z","depth":0,"parameterNumber":3,"parameterNumberName":"V-component_of_WINDS"},"data":[0,0,0,0,0,0,0,0,0,0,0,0,0,0,0,0,0,0,0,0,0,0,0,0,0,0,0,0,0,0,0,0,0,0,0,0,0,0,0,0,0,0,0,0,0,0,0,0,0,0,0,0,0,0,0,0,0,0,2.3003,2.3003,0,2.2951,2.295,2.2949,2.2924,2.2924,2.2924,2.2924,2.2867,2.2866,2.2864,0,0,0,0,0,0,0,0,0,0,0,0,0,2.3077,2.3076,2.3003,2.3003,2.3002,2.2951,2.295,2.2949,2.2924,2.2924,2.2924,2.2924,2.2868,2.2866,2.2864,0,0,0,0,0,0,0,0,0,0,0,0,0,2.3037,2.3075,2.3003,2.2983,2.2981,2.2951,2.295,2.2949,2.2924,2.2924,2.2924,2.2924,2.2868,2.2866,2.2864,2.2849,0,0,2.2857,2.2856,0,0,0,0,0,0,0,0,2.3039,2.3034,2.2987,2.2985,2.2982,2.2944,2.2955,2.2915,2.2924,2.2945,2.2924,2.2924,2.2892,2.2888,2.2878,2.2846,2.2844,2.2857,2.2855,2.2854,2.2854,0,0,0,0,0,0,0,2.3042,2.3036,2.2982,2.2986,2.2983,2.2975,2.297,2.2947,2.2919,2.2944,2.2942,2.2936,2.2891,2.288,2.2877,2.2843,2.2857,2.2855,2.2853,2.2852,2.2792,2.2792,0,0,0,0,0,0,2.3048,2.3039,2.2984,2.2981,2.3011,2.2974,2.2967,2.2956,2.292,2.2914,2.2936,2.2935,2.2884,2.2879,2.2875,2.2852,2.2854,2.2852,2.2851,2.2792,2.2792,2.2792,0,0,0,0,0,0,2.305,2.3044,2.2986,2.3009,2.3001,2.2973,2.296,2.2955,2.2944,2.2914,2.2908,2.2931,2.2884,2.2878,2.2855,2.285,2.2851,2.2849,2.2793,2.2792,2.2792,2.2809,0,0,0,0,0,0,2.3052,2.3045,2.304,2.3009,2.3,2.2969,2.296,2.2954,2.2941,2.2939,2.2907,2.2902,2.2884,2.2858,2.2853,2.2847,2.2847,2.2793,2.2793,2.2792,2.2809,2.281,2.281,0,0,0,0,0,2.3055,2.3047,2.304,2.3033,2.2994,2.2969,2.2963,2.2943,2.2941,2.2934,2.2914,2.2903,2.2852,2.2856,2.2849,2.2843,2.2793,2.2793,2.2792,2.2809,2.281,2.281,0,0,0,0,0,0,2.3078,2.3043,2.3034,2.3017,2.2996,2.2965,2.2957,2.2945,2.2924,2.2923,2.2898,2.2891,2.287,2.2854,2.286,2.2825,2.2821,2.2819,2.2836,2.2837,2.2837,2.2841,2.2845,0,0,0,0,0,2.3081,2.3064,2.3034,2.3021,2.3011,2.2986,2.2974,2.296,2.2937,2.2928,2.2907,2.2884,2.2862,2.2849,2.2827,2.2807,2.2798,2.2799,2.2799,2.28,2.2798,2.2783,2.2782,2.279,2.279,2.279,0,0,2.3086,2.3065,2.3057,2.3025,2.3007,2.2989,2.2979,2.2961,2.2946,2.2925,2.2902,2.2885,2.2858,2.2835,2.2824,2.2821,2.2794,2.2799,2.28,2.2798,2.2782,2.2782,2.2781,2.279,2.279,2.279,0,0,2.3088,2.3071,2.3057,2.3039,2.3013,2.2995,2.2992,2.2962,2.295,2.2926,2.2909,2.2891,2.2855,2.2835,2.2821,2.2811,2.2799,2.2805,2.2808,2.2793,2.2793,2.2792,2.2786,2.2785,2.2804,2.2804,2.2804,0,2.3098,2.3071,2.3051,2.3033,2.3019,2.2999,2.2983,2.2967,2.2934,2.2924,2.2921,2.2874,2.2854,2.2825,2.2823,2.2812,2.2806,2.2808,2.2795,2.2794,2.2793,2.2787,2.2785,2.2804,2.2804,2.2804,2.2804,0,2.3084,2.3066,2.3057,2.3027,2.3011,2.2995,2.297,2.2956,2.2943,2.2925,2.29,2.2875,2.2847,2.2839,2.2827,2.2808,2.2806,2.28,2.2795,2.2793,2.2787,2.2785,2.2806,2.2805,2.2805,2.2805,0,0,2.3099,2.3056,2.3053,2.3038,2.3006,2.299,2.2971,2.2944,2.2932,2.291,2.2892,2.286,2.2853,2.2836,2.2821,2.2808,2.2799,2.2802,2.2801,2.2801,2.2773,2.2778,2.2776,2.2791,2.279,2.279,2.2775,0,2.3095,2.3062,2.3041,2.3016,2.2997,2.2976,2.296,2.2937,2.2919,2.2899,2.2879,2.2856,2.285,2.2839,2.2826,2.2803,2.2793,2.2804,2.2772,2.2771,2.2778,2.2773,2.2779,2.2766,2.2773,2.2773,2.2772,0,2.3085,2.3063,2.3036,2.3003,2.2995,2.298,2.2952,2.2934,2.2907,2.2894,2.2875,2.2859,2.2835,2.2833,2.2799,2.2807,2.2792,2.2779,2.2777,2.2773,2.2771,2.2767,2.2761,2.2759,2.2769,2.2769,2.2769,0,2.3097,2.306,2.3038,2.3026,2.2988,2.2978,2.2961,2.2934,2.2918,2.2893,2.2882,2.2855,2.2839,2.2817,2.2793,2.2794,2.276,2.2757,2.2748,2.2748,2.2741,2.2742,2.2732,2.2734,2.2734,2.2734,2.2734,0,2.3093,2.3077,2.3042,2.3029,2.3008,2.2984,2.2964,2.2946,2.2921,2.2902,2.2883,2.2865,2.2835,2.2812,2.2793,2.2766,2.2759,2.2747,2.2742,2.2748,2.2749,2.2737,2.2737,2.2733,2.2734,2.2734,2.2734,0,2.3102,2.3079,2.3054,2.3019,2.301,2.2997,2.2966,2.2951,2.2932,2.2907,2.29,2.2869,2.2841,2.2815,2.2778,2.2764,2.2736,2.2731,2.2746,2.2743,2.2734,2.2735,2.2715,2.271,2.2718,2.2718,2.2718,0,2.3101,2.3088,2.3052,2.3038,2.3022,2.3,2.2984,2.2958,2.2941,2.2908,2.2896,2.2867,2.2842,2.2798,2.277,2.2741,2.2733,2.2728,2.2728,2.2734,2.273,2.2731,2.2728,2.2728,2.2728,2.2728,2.2729,0,2.3101,2.309,2.3067,2.304,2.3021,2.2998,2.2975,2.2964,2.2933,2.2915,2.2886,2.2867,2.2828,2.2799,2.2765,2.2746,2.2731,2.2729,2.2724,2.273,2.2739,2.2732,2.2745,2.2729,2.2729,2.2729,2.2729,2.2729,2.3104,2.309,2.3062,2.3037,2.3016,2.2994,2.2977,2.2955,2.2931,2.2899,2.2884,2.2855,2.2824,2.2778,2.2759,2.2734,2.273,2.2725,2.2723,2.2722,2.2722,2.2744,2.2728,2.2728,2.2728,2.2727,2.2727,0,2.3101,2.3081,2.3059,2.3026,2.3005,2.2994,2.2966,2.2949,2.2924,2.2898,2.2873,2.2839,2.2809,2.2779,2.2746,2.2732,2.2724,2.2724,2.2724,2.2719,2.2728,2.2734,2.2731,2.2731,2.2731,2.2731,2.2731,2.2731,2.3097,2.3072,2.3057,2.3021,2.3001,2.2972,2.2957,2.2935,2.2914,2.2876,2.2852,2.2832,2.2803,2.2768,2.2739,2.2731,2.2719,2.2721,2.271,2.2719,2.2719,2.2719,2.2724,2.2719,2.2719,2.2703,2.2703,2.2703]}]]